Location: N�rnberg
(49.4471°N, 11.0632°E)
Time: 20:51:16
(UTC+02:00)

VELOX 1 - Pass Details

Date: 22 April 2026
Orbit: 569 x 580 km, 98.3° (Epoch: 13 May)

Event Time Altitude Azimuth Distance (km) Brightness Sun altitude
Rises 23:23:56 0° 31° (NNE) 2,784 ? -23.5°
Reaches altitude 10° 23:27:01 10° 57° (ENE) 1,880 ? -23.8°
Enters shadow 23:27:25 11° 62° (ENE) 1,799 ? -23.8°
